カタログに戻る

THOR ABLE DEB

YO

運用中VLEO
NORAD 115·DEBRIS·🇺🇸 United States

打ち上げ Apr 1, 1960 から Cape Canaveral Space Force Station

Loading…

次のパス (今後24時間)

TLE

最新Source: Space-Track

元期: Sep 14, 2026, 09:27 UTC

1 00115U 60002D   26257.39428063  .00001736  00000-0  16307-3 0  9999
2 00115  48.1648  21.8190 0026439 299.5489  60.2794 14.98584536531517

AllMySatでTHOR ABLE DEBをリアルタイム追跡

Download on the App Store